Home   Weather   Rockford   Past weeks

Flag for USA Past Weather in Rockford, Illinois, USA — Yesterday and Last 2 Weeks

Now
69 °F

Passing clouds.


Feels Like: 69 °F
Forecast: 49 / 66 °F
Wind: 17 mph from South

Location: Greater Rockford Airport

Current Time: Feb 22, 2017 at 4:49:04 pm

Latest Report: Feb 22, 2017 at 3:54 pm


Visibility: 10 mi

Pressure: 29.60 "Hg

Humidity: 51%

Dew Point: 50 °F

Location of RockfordLocation

Past Weather in Rockford — Graph

°F

Rockford Temperature Yesterday

Maximum temperature yesterday: 66 °F (at 3:54 pm)
Minimum temperature yesterday: 44 °F (at 11:54 pm)
Average temperature yesterday: 55 °F

High & Low Weather Summary for the Past Weeks

 TemperatureHumidityPressure
High70 °F (Feb 22, 2:54 pm)97% (Feb 22, 4:54 am)30.40 "Hg (Feb 22, 4:54 am)
Low12 °F (Feb 9, 6:54 am)32% (Feb 12, 1:54 pm)29.44 "Hg (Feb 7, 2:22 pm)
Average40 °F65%29.95 "Hg
* Reported Feb 7 2:22 pm — Feb 22 2:54 pm, Rockford, Weather by CustomWeather, © 2017

Note: Actual official high and low records may vary slightly from our data, if they occured in-between our weather recording intervals... More about our weather records

Advertising

Rockford Weather History for the Previous 24 Hours

Scroll right to see more
 ConditionsComfort  
Time TempWeatherWind HumidityBarometerVisibility
2:54 pm
Wed, Feb 22
70 °FPassing clouds.16 mph51%29.62 "Hg10 mi
1:54 pm69 °FPassing clouds.15 mph55%29.65 "Hg10 mi
12:54 pm67 °FPassing clouds.15 mph61%29.68 "Hg10 mi
11:54 am64 °FPassing clouds.18 mph70%29.72 "Hg10 mi
10:54 am60 °FScattered clouds.15 mph80%29.75 "Hg10 mi
10:23 am56 °FFog.14 mph93%29.77 "Hg3 mi
9:54 am55 °FFog.12 mph96%29.77 "Hg3 mi
8:54 am54 °FFog.15 mph97%29.78 "Hg1 mi
8:24 am53 °FFog.10 mph96%29.78 "Hg0 mi
7:54 am52 °FFog.7 mph97%29.80 "Hg0 mi
6:54 am51 °FFog.5 mph96%29.80 "Hg0 mi
5:54 am50 °FFog.10 mph96%29.80 "Hg0 mi
4:54 am52 °FFog.9 mph97%29.81 "Hg0 mi
3:54 am50 °FFog.8 mph96%29.81 "Hg0 mi
2:54 am48 °FFog.3 mph96%29.83 "Hg0 mi
1:54 am45 °FFog.5 mph93%29.84 "Hg0 mi
1:40 am45 °FFog.6 mph93%29.84 "Hg0 mi
1:25 am45 °FFog.3 mph93%29.84 "Hg0 mi
1:07 am45 °FFog.No wind93%29.85 "Hg0 mi
11:54 pm
Tue, Feb 21
44 °FFog.No wind85%29.86 "Hg8 mi
10:54 pm45 °FClear.3 mph86%29.87 "Hg10 mi
9:54 pm48 °FClear.3 mph80%29.88 "Hg10 mi
8:54 pm50 °FPassing clouds.5 mph77%29.89 "Hg10 mi
7:54 pm55 °FOvercast.3 mph67%29.89 "Hg10 mi
6:54 pm56 °FPassing clouds.3 mph60%29.90 "Hg10 mi
5:54 pm60 °FPassing clouds.No wind46%29.91 "Hg10 mi
4:54 pm64 °FScattered clouds.3 mph38%29.90 "Hg10 mi
Weather by CustomWeather, © 2017

See weather overviewHow to use our weather pages